Skagway, AK

11:36 AM AKDT on July 22, 2017 (GMT -0800)
Skagway

Weather History for PAGY - August, 2014

Change the Weather History Date:

Monday, August 4, 2014

  Actual Average Record
Temperature  
Mean Temperature 61 °F -  
Max Temperature 70 °F 64 °F 80 °F (1968)
Min Temperature 54 °F 50 °F 40 °F (1965)
Degree Days  
Heating Degree Days 4    
Growing Degree Days 11 (Base 50)    
Moisture  
Dew Point 52 °F    
Average Humidity 74    
Maximum Humidity 86    
Minimum Humidity 59    
Precipitation  
Precipitation 0.01 in - - ()
Sea Level Pressure  
Sea Level Pressure 29.95 in    
Wind  
Wind Speed 5 mph (SW)    
Max Wind Speed 20 mph    
Max Gust Speed 25 mph    
Visibility 10 miles    
Events Rain    
Averages and records for this station are not official NWS values.
T = Trace of Precipitation, MM = Missing Value Source: NWS Daily Summary

Daily Weather History Graph

Daily Weather History Graph

Search for Another Location

Airport or City:

Trip Planner

Search our weather history database for the weather conditions in past years. The results will help you decide how hot, cold, wet, or windy it might be!

Date:

Astronomy

Aug. 04, 2014 Rise Set
Actual Time 4:52 AM AKDT 9:20 PM AKDT
Civil Twilight 3:56 AM AKDT 10:15 PM AKDT
Nautical Twilight 2:18 AM AKDT 11:50 PM AKDT
Astronomical Twilight Sun does not set Sun does not set
Moon 3:36 PM AKDT (8/4) 11:49 PM AKDT (8/4)
Length of Visible Light 18h 18m
Length of Day
16h 27m
First Quarter, 59% of the Moon is Illuminated
Aug 4
First Quarter
Aug 10
Full
Aug 17
Last Quarter
Aug 25
New
Sep 2
First Quarter

Hourly Weather History & Observations

Time (AKDT) Temp. Dew Point Humidity Pressure Visibility Wind Dir Wind Speed Gust Speed Precip Events Conditions
12:53 AM 57.0 °F 51.1 °F 81% 29.96 in 10.0 mi North 3.5 mph - N/A   Clear
1:53 AM 55.9 °F 50.0 °F 80% 29.96 in 10.0 mi NNE 4.6 mph - N/A   Partly Cloudy
2:53 AM 55.9 °F 50.0 °F 80% 29.95 in 10.0 mi NE 3.5 mph - N/A   Scattered Clouds
3:53 AM 55.0 °F 48.9 °F 80% 29.94 in 10.0 mi NE 3.5 mph - N/A   Mostly Cloudy
4:53 AM 55.0 °F 50.0 °F 83% 29.94 in 10.0 mi Calm Calm - N/A   Overcast
5:53 AM 55.9 °F 50.0 °F 80% 29.94 in 10.0 mi Calm Calm - N/A   Partly Cloudy
6:53 AM 54.0 °F 50.0 °F 86% 29.94 in 10.0 mi SW 4.6 mph - N/A   Scattered Clouds
7:53 AM 57.0 °F 52.0 °F 83% 29.96 in 10.0 mi Calm Calm - N/A   Scattered Clouds
8:53 AM 59.0 °F 50.0 °F 72% 29.94 in 10.0 mi SW 5.8 mph - N/A   Mostly Cloudy
9:53 AM 57.0 °F 50.0 °F 77% 29.96 in 10.0 mi WSW 4.6 mph - 0.00 in   Overcast
10:53 AM 59.0 °F 52.0 °F 78% 29.97 in 10.0 mi Calm Calm - 0.00 in   Overcast
11:53 AM 60.1 °F 53.1 °F 78% 29.98 in 9.0 mi Calm Calm - 0.00 in Rain Light Rain
12:53 PM 62.1 °F 55.9 °F 80% 29.99 in 10.0 mi Calm Calm - 0.01 in Rain Light Rain
1:53 PM 66.9 °F 57.9 °F 73% 29.98 in 10.0 mi Calm Calm - 0.00 in   Mostly Cloudy
2:53 PM 64.9 °F 54.0 °F 68% 29.97 in 10.0 mi WSW 6.9 mph - N/A   Mostly Cloudy
3:53 PM 68.0 °F 54.0 °F 61% 29.96 in 10.0 mi SSW 16.1 mph 23.0 mph N/A   Mostly Cloudy
4:53 PM 63.0 °F 53.1 °F 70% 29.94 in 10.0 mi SW 19.6 mph - N/A   Partly Cloudy
5:53 PM 68.0 °F 53.1 °F 59% 29.93 in 10.0 mi SSW 19.6 mph 25.3 mph N/A   Partly Cloudy
6:53 PM 66.9 °F 52.0 °F 59% 29.93 in 10.0 mi SSW 15.0 mph 20.7 mph N/A   Clear
7:53 PM 66.9 °F 53.1 °F 61% 29.93 in 10.0 mi SSW 15.0 mph 21.9 mph N/A   Partly Cloudy
8:53 PM 66.0 °F 53.1 °F 63% 29.93 in 10.0 mi SSW 15.0 mph - N/A   Mostly Cloudy
9:53 PM 64.9 °F 53.1 °F 65% 29.93 in 10.0 mi SSW 11.5 mph - N/A   Scattered Clouds
10:53 PM 62.1 °F 52.0 °F 70% 29.94 in 10.0 mi NE 3.5 mph - N/A   Scattered Clouds
11:53 PM 59.0 °F 52.0 °F 78% 29.94 in 10.0 mi NNE 6.9 mph - N/A   Mostly Cloudy